Home   Weather   Winsen (Luhe)   Past weeks

Flag for Germany Past Weather in Winsen (Luhe), Lower Saxony, Germany — Yesterday and Last 2 Weeks

Now
43 °F

Scattered showers. Passing clouds.


Feels Like: 40 °F
Forecast: 31 / 52 °F
Wind: 5 mph from North

Location: Hamburg-Finkenwerder

Current Time: Apr 26, 2017 at 10:12:24 pm

Latest Report: Apr 26, 2017 at 9:20 pm


Visibility: N/A

Pressure: 29.92 "Hg

Humidity: 61%

Dew Point: 30 °F

Location of Winsen (Luhe)Location

Past Weather in Winsen (Luhe) — Graph

°F

Winsen (Luhe) Temperature Yesterday

Maximum temperature yesterday: 46 °F (at 11:50 am)
Minimum temperature yesterday: 37 °F (at 6:20 am)
Average temperature yesterday: 43 °F

High & Low Weather Summary for the Past Weeks

 TemperatureHumidityPressure
High57 °F (Apr 21, 12:50 pm)100% (Apr 25, 7:41 am)30.60 "Hg (Apr 25, 7:41 am)
Low30 °F (Apr 19, 5:50 am)40% (Apr 19, 5:20 pm)29.56 "Hg (Apr 25, 8:20 am)
Average46 °F72%30.05 "Hg
* Reported Apr 11 8:20 pm — Apr 26 8:50 pm, Winsen (Luhe), Weather by CustomWeather, © 2017

Note: Actual official high and low records may vary slightly from our data, if they occured in-between our weather recording intervals... More about our weather records

Advertising

Winsen (Luhe) Weather History for the Previous 24 Hours

Scroll right to see more
 ConditionsComfort  
Time TempWeatherWind HumidityBarometerVisibility
8:50 pm
Wed, Apr 26
45 °FScattered showers. Passing clouds.8 mph61%29.92 "HgN/A
7:50 pm46 °FScattered clouds.12 mph57%29.89 "HgN/A
7:20 pm50 °FPassing clouds.8 mph50%29.89 "HgN/A
6:50 pm48 °FSunny.9 mph58%29.89 "Hg10 mi
6:20 pm48 °FPassing clouds.6 mph58%29.89 "HgN/A
5:50 pm48 °FPassing clouds.9 mph54%29.86 "HgN/A
5:20 pm46 °FSprinkles. Passing clouds.10 mph62%29.89 "HgN/A
4:50 pm46 °FSprinkles. Scattered clouds.8 mph62%29.89 "HgN/A
4:20 pm46 °FSprinkles. Scattered clouds.9 mph62%29.89 "HgN/A
3:50 pm46 °FScattered showers. Scattered clouds.12 mph57%29.89 "HgN/A
3:20 pm46 °FSprinkles. Broken clouds.13 mph57%29.86 "HgN/A
2:50 pm46 °FSprinkles. Scattered clouds.2 mph62%29.86 "HgN/A
2:31 pm45 °FScattered showers. Scattered clouds.7 mph66%29.86 "HgN/A
1:50 pm45 °FSprinkles. Scattered clouds.9 mph71%29.86 "HgN/A
1:20 pm48 °FScattered showers. Scattered clouds.8 mph62%29.86 "HgN/A
12:50 pm48 °FScattered showers. Scattered clouds.9 mph54%29.86 "HgN/A
12:20 pm45 °FScattered showers. Scattered clouds.9 mph61%29.86 "HgN/A
11:50 am46 °FBroken clouds.9 mph57%29.86 "HgN/A
11:20 am46 °FScattered clouds.7 mph57%29.86 "HgN/A
10:50 am45 °FScattered clouds.6 mph66%29.83 "HgN/A
10:20 am45 °FScattered clouds.6 mph71%29.83 "HgN/A
9:50 am43 °FPassing clouds.7 mph76%29.83 "HgN/A
9:20 am43 °FPassing clouds.6 mph81%29.83 "HgN/A
8:50 am39 °FPassing clouds.6 mph87%29.83 "HgN/A
8:20 am37 °FPassing clouds.5 mph93%29.83 "HgN/A
7:50 am36 °FPassing clouds.3 mph93%29.83 "HgN/A
7:20 am34 °FPassing clouds.3 mph100%29.80 "HgN/A
6:50 am34 °FPassing clouds.5 mph93%29.80 "HgN/A
6:20 am34 °FSunny.6 mph93%29.80 "Hg10 mi
Weather by CustomWeather, © 2017

See weather overviewHow to use our weather pages